owner,sensor,date,latitude,longitude,vertical_datum,sea_water_practical_salinity,qcFlag 
SCCF RECON,ioos:station:SCCF:16:1,2008-05-01T16:00:00Z,26.4345,-81.9647,2.763,37.71,1111122 
SCCF RECON,ioos:station:SCCF:16:1,2008-05-01T17:00:00Z,26.4345,-81.9647,2.623,37.72,1111122 
SCCF RECON,ioos:station:SCCF:16:1,2008-05-01T18:00:00Z,26.4345,-81.9647,2.481,37.74,1111122 
SCCF RECON,ioos:station:SCCF:16:1,2008-05-01T19:00:00Z,26.4345,-81.9647,2.387,37.74,1111122 
SCCF RECON,ioos:station:SCCF:16:1,2008-05-01T20:00:00Z,26.4345,-81.9647,2.329,37.71,1111122 
SCCF RECON,ioos:station:SCCF:16:1,2008-05-01T21:00:00Z,26.4345,-81.9647,2.343,37.67,1111122 
SCCF RECON,ioos:station:SCCF:16:1,2008-05-01T22:00:00Z,26.4345,-81.9647,2.427,37.65,1111122 
SCCF RECON,ioos:station:SCCF:16:1,2008-05-01T23:00:00Z,26.4345,-81.9647,2.565,37.64,1111122 
SCCF RECON,ioos:station:SCCF:16:1,2008-05-02T00:00:00Z,26.4345,-81.9647,2.672,37.68,1111122 
SCCF RECON,ioos:station:SCCF:16:1,2008-05-02T01:00:00Z,26.4345,-81.9647,2.766,37.71,1111122 
SCCF RECON,ioos:station:SCCF:16:1,2008-05-02T02:00:00Z,26.4345,-81.9647,2.826,37.79,1111122 
SCCF RECON,ioos:station:SCCF:16:1,2008-05-02T03:00:00Z,26.4345,-81.9647,2.816,37.79,1111122 
SCCF RECON,ioos:station:SCCF:16:1,2008-05-02T04:00:00Z,26.4345,-81.9647,2.717,37.75,1111122 
SCCF RECON,ioos:station:SCCF:16:1,2008-05-02T05:00:00Z,26.4345,-81.9647,2.59,37.74,1111122 
SCCF RECON,ioos:station:SCCF:16:1,2008-05-02T06:00:00Z,26.4345,-81.9647,2.416,37.79,1111122 
SCCF RECON,ioos:station:SCCF:16:1,2008-05-02T07:00:00Z,26.4345,-81.9647,2.295,37.81,1111122 
SCCF RECON,ioos:station:SCCF:16:1,2008-05-02T08:00:00Z,26.4345,-81.9647,2.254,37.84,1111122 
SCCF RECON,ioos:station:SCCF:16:1,2008-05-02T09:00:00Z,26.4345,-81.9647,2.271,37.76,1111122 
SCCF RECON,ioos:station:SCCF:16:1,2008-05-02T10:00:00Z,26.4345,-81.9647,2.429,37.7,1111122 
SCCF RECON,ioos:station:SCCF:16:1,2008-05-02T11:00:00Z,26.4345,-81.9647,2.632,37.72,1111122 
SCCF RECON,ioos:station:SCCF:16:1,2008-05-02T12:00:00Z,26.4345,-81.9647,2.764,37.81,1111122 
SCCF RECON,ioos:station:SCCF:16:1,2008-05-02T13:00:00Z,26.4345,-81.9647,2.886,37.82,1111122 
SCCF RECON,ioos:station:SCCF:16:1,2008-05-02T14:00:00Z,26.4345,-81.9647,3.005,37.76,1111122 
SCCF RECON,ioos:station:SCCF:16:1,2008-05-02T15:00:00Z,26.4345,-81.9647,3.034,37.76,1111122 
SCCF RECON,ioos:station:SCCF:16:1,2008-05-02T16:00:00Z,26.4345,-81.9647,2.949,37.73,1111122 
SCCF RECON,ioos:station:SCCF:16:1,2008-05-02T17:00:00Z,26.4345,-81.9647,2.793,37.73,1111122 
SCCF RECON,ioos:station:SCCF:16:1,2008-05-02T18:00:00Z,26.4345,-81.9647,2.608,37.76,1111122 
SCCF RECON,ioos:station:SCCF:16:1,2008-05-02T19:00:00Z,26.4345,-81.9647,2.451,37.8,1111122 
SCCF RECON,ioos:station:SCCF:16:1,2008-05-02T20:00:00Z,26.4345,-81.9647,2.309,37.82,1111122 
SCCF RECON,ioos:station:SCCF:16:1,2008-05-02T21:00:00Z,26.4345,-81.9647,2.2,37.89,1111122 
SCCF RECON,ioos:station:SCCF:16:1,2008-05-02T22:00:00Z,26.4345,-81.9647,2.277,37.79,1111122 
SCCF RECON,ioos:station:SCCF:16:1,2008-05-02T23:00:00Z,26.4345,-81.9647,2.445,37.83,1111122 
SCCF RECON,ioos:station:SCCF:16:1,2008-05-03T00:00:00Z,26.4345,-81.9647,2.645,37.83,1111122 
SCCF RECON,ioos:station:SCCF:16:1,2008-05-03T01:00:00Z,26.4345,-81.9647,2.77,37.78,1111122 
SCCF RECON,ioos:station:SCCF:16:1,2008-05-03T02:00:00Z,26.4345,-81.9647,2.882,37.78,1111122 
SCCF RECON,ioos:station:SCCF:16:1,2008-05-03T03:00:00Z,26.4345,-81.9647,2.938,37.73,1111122 
SCCF RECON,ioos:station:SCCF:16:1,2008-05-03T04:00:00Z,26.4345,-81.9647,2.906,37.7,1111122 
SCCF RECON,ioos:station:SCCF:16:1,2008-05-03T05:00:00Z,26.4345,-81.9647,2.757,37.71,1111122 
SCCF RECON,ioos:station:SCCF:16:1,2008-05-03T06:00:00Z,26.4345,-81.9647,2.591,37.79,1111122 
SCCF RECON,ioos:station:SCCF:16:1,2008-05-03T07:00:00Z,26.4345,-81.9647,2.443,37.86,1111122 
SCCF RECON,ioos:station:SCCF:16:1,2008-05-03T08:00:00Z,26.4345,-81.9647,2.372,37.84,1111122 
SCCF RECON,ioos:station:SCCF:16:1,2008-05-03T09:00:00Z,26.4345,-81.9647,2.341,37.85,1111122 
SCCF RECON,ioos:station:SCCF:16:1,2008-05-03T10:00:00Z,26.4345,-81.9647,2.39,37.83,1111122 
SCCF RECON,ioos:station:SCCF:16:1,2008-05-03T11:00:00Z,26.4345,-81.9647,2.533,37.84,1111122 
SCCF RECON,ioos:station:SCCF:16:1,2008-05-03T12:00:00Z,26.4345,-81.9647,2.737,37.84,1111122 
SCCF RECON,ioos:station:SCCF:16:1,2008-05-03T13:00:00Z,26.4345,-81.9647,2.898,37.81,1111122 
SCCF RECON,ioos:station:SCCF:16:1,2008-05-03T14:00:00Z,26.4345,-81.9647,2.981,37.83,1111122 
SCCF RECON,ioos:station:SCCF:16:1,2008-05-03T15:00:00Z,26.4345,-81.9647,3.031,37.83,1111122 
SCCF RECON,ioos:station:SCCF:16:1,2008-05-03T16:00:00Z,26.4345,-81.9647,3.012,37.85,1111122 
SCCF RECON,ioos:station:SCCF:16:1,2008-05-03T17:00:00Z,26.4345,-81.9647,2.9,37.88,1111122 
SCCF RECON,ioos:station:SCCF:16:1,2008-05-03T18:00:00Z,26.4345,-81.9647,2.668,37.89,1111122 
SCCF RECON,ioos:station:SCCF:16:1,2008-05-03T19:00:00Z,26.4345,-81.9647,2.483,37.88,1111122 
SCCF RECON,ioos:station:SCCF:16:1,2008-05-03T20:00:00Z,26.4345,-81.9647,2.319,37.84,1111122 
SCCF RECON,ioos:station:SCCF:16:1,2008-05-03T21:00:00Z,26.4345,-81.9647,2.145,37.85,1111122 
SCCF RECON,ioos:station:SCCF:16:1,2008-05-03T22:00:00Z,26.4345,-81.9647,2.036,37.83,1111122 
SCCF RECON,ioos:station:SCCF:16:1,2008-05-03T23:00:00Z,26.4345,-81.9647,2.123,37.82,1111122 
SCCF RECON,ioos:station:SCCF:16:1,2008-05-04T00:00:00Z,26.4345,-81.9647,2.353,37.85,1111122 
SCCF RECON,ioos:station:SCCF:16:1,2008-05-04T01:00:00Z,26.4345,-81.9647,2.624,37.82,1111122 
SCCF RECON,ioos:station:SCCF:16:1,2008-05-04T02:00:00Z,26.4345,-81.9647,2.809,37.76,1111122 
SCCF RECON,ioos:station:SCCF:16:1,2008-05-04T03:00:00Z,26.4345,-81.9647,2.879,37.73,1111122 
SCCF RECON,ioos:station:SCCF:16:1,2008-05-04T04:00:00Z,26.4345,-81.9647,2.911,37.73,1111122 
SCCF RECON,ioos:station:SCCF:16:1,2008-05-04T05:00:00Z,26.4345,-81.9647,2.871,37.77,1111122 
SCCF RECON,ioos:station:SCCF:16:1,2008-05-04T06:00:00Z,26.4345,-81.9647,2.811,37.83,1111122 
SCCF RECON,ioos:station:SCCF:16:1,2008-05-04T07:00:00Z,26.4345,-81.9647,2.628,37.81,1111122 
SCCF RECON,ioos:station:SCCF:16:1,2008-05-04T08:00:00Z,26.4345,-81.9647,2.498,37.79,1111122 
SCCF RECON,ioos:station:SCCF:16:1,2008-05-04T09:00:00Z,26.4345,-81.9647,2.42,37.8,1111122 
SCCF RECON,ioos:station:SCCF:16:1,2008-05-04T10:00:00Z,26.4345,-81.9647,2.433,37.81,1111122 
SCCF RECON,ioos:station:SCCF:16:1,2008-05-04T11:00:00Z,26.4345,-81.9647,2.513,37.8,1111122 
SCCF RECON,ioos:station:SCCF:16:1,2008-05-04T12:00:00Z,26.4345,-81.9647,2.605,37.77,1111122 
SCCF RECON,ioos:station:SCCF:16:1,2008-05-04T13:00:00Z,26.4345,-81.9647,2.812,37.76,1111122 
SCCF RECON,ioos:station:SCCF:16:1,2008-05-04T14:00:00Z,26.4345,-81.9647,2.969,37.74,1111122 
SCCF RECON,ioos:station:SCCF:16:1,2008-05-04T15:00:00Z,26.4345,-81.9647,3.021,37.8,1111122 
SCCF RECON,ioos:station:SCCF:16:1,2008-05-04T16:00:00Z,26.4345,-81.9647,3.065,37.84,1111122 
SCCF RECON,ioos:station:SCCF:16:1,2008-05-04T17:00:00Z,26.4345,-81.9647,2.963,37.85,1111122 
SCCF RECON,ioos:station:SCCF:16:1,2008-05-04T18:00:00Z,26.4345,-81.9647,2.762,37.81,1111122 
SCCF RECON,ioos:station:SCCF:16:1,2008-05-04T19:00:00Z,26.4345,-81.9647,2.477,37.8,1111122 
SCCF RECON,ioos:station:SCCF:16:1,2008-05-04T20:00:00Z,26.4345,-81.9647,2.249,37.81,1111122 
SCCF RECON,ioos:station:SCCF:16:1,2008-05-04T21:00:00Z,26.4345,-81.9647,1.986,37.84,1111122 
SCCF RECON,ioos:station:SCCF:16:1,2008-05-04T22:00:00Z,26.4345,-81.9647,1.796,37.78,1111122 
SCCF RECON,ioos:station:SCCF:16:1,2008-05-04T23:00:00Z,26.4345,-81.9647,1.769,37.81,1111122 
SCCF RECON,ioos:station:SCCF:16:1,2008-05-05T00:00:00Z,26.4345,-81.9647,1.968,37.79,1111122 
SCCF RECON,ioos:station:SCCF:16:1,2008-05-05T01:00:00Z,26.4345,-81.9647,2.23,37.77,1111122 
SCCF RECON,ioos:station:SCCF:16:1,2008-05-05T02:00:00Z,26.4345,-81.9647,2.475,37.79,1111122 
SCCF RECON,ioos:station:SCCF:16:1,2008-05-05T03:00:00Z,26.4345,-81.9647,2.641,37.74,1111122 
SCCF RECON,ioos:station:SCCF:16:1,2008-05-05T04:00:00Z,26.4345,-81.9647,2.766,37.69,1111122 
SCCF RECON,ioos:station:SCCF:16:1,2008-05-05T05:00:00Z,26.4345,-81.9647,2.828,37.67,1111122 
SCCF RECON,ioos:station:SCCF:16:1,2008-05-05T06:00:00Z,26.4345,-81.9647,2.747,37.68,1111122 
SCCF RECON,ioos:station:SCCF:16:1,2008-05-05T07:00:00Z,26.4345,-81.9647,2.647,37.69,1111122 
SCCF RECON,ioos:station:SCCF:16:1,2008-05-05T08:00:00Z,26.4345,-81.9647,2.55,37.71,1111122 
SCCF RECON,ioos:station:SCCF:16:1,2008-05-05T09:00:00Z,26.4345,-81.9647,2.455,37.72,1111122 
SCCF RECON,ioos:station:SCCF:16:1,2008-05-05T10:00:00Z,26.4345,-81.9647,2.4,37.73,1111122 
SCCF RECON,ioos:station:SCCF:16:1,2008-05-05T11:00:00Z,26.4345,-81.9647,2.39,37.73,1111122 
SCCF RECON,ioos:station:SCCF:16:1,2008-05-05T12:00:00Z,26.4345,-81.9647,2.493,37.73,1111122 
SCCF RECON,ioos:station:SCCF:16:1,2008-05-05T13:00:00Z,26.4345,-81.9647,2.689,37.71,1111122 
SCCF RECON,ioos:station:SCCF:16:1,2008-05-05T14:00:00Z,26.4345,-81.9647,2.884,37.66,1111122 
SCCF RECON,ioos:station:SCCF:16:1,2008-05-05T15:00:00Z,26.4345,-81.9647,2.963,37.64,1111122 
SCCF RECON,ioos:station:SCCF:16:1,2008-05-05T16:00:00Z,26.4345,-81.9647,2.991,37.62,1111122 
SCCF RECON,ioos:station:SCCF:16:1,2008-05-05T17:00:00Z,26.4345,-81.9647,2.968,37.62,1111122 
SCCF RECON,ioos:station:SCCF:16:1,2008-05-05T18:00:00Z,26.4345,-81.9647,2.86,37.61,1111122 
SCCF RECON,ioos:station:SCCF:16:1,2008-05-05T19:00:00Z,26.4345,-81.9647,2.655,37.64,1111122 
SCCF RECON,ioos:station:SCCF:16:1,2008-05-05T20:00:00Z,26.4345,-81.9647,2.391,37.68,1111122 
SCCF RECON,ioos:station:SCCF:16:1,2008-05-05T21:00:00Z,26.4345,-81.9647,2.118,37.75,1111122 
SCCF RECON,ioos:station:SCCF:16:1,2008-05-05T22:00:00Z,26.4345,-81.9647,1.853,37.75,1111122 
SCCF RECON,ioos:station:SCCF:16:1,2008-05-05T23:00:00Z,26.4345,-81.9647,1.68,37.74,1111122 
SCCF RECON,ioos:station:SCCF:16:1,2008-05-06T00:00:00Z,26.4345,-81.9647,1.652,37.73,1111122 
SCCF RECON,ioos:station:SCCF:16:1,2008-05-06T01:00:00Z,26.4345,-81.9647,1.882,37.68,1111122 
SCCF RECON,ioos:station:SCCF:16:1,2008-05-06T02:00:00Z,26.4345,-81.9647,2.21,37.74,1111122 
SCCF RECON,ioos:station:SCCF:16:1,2008-05-06T03:00:00Z,26.4345,-81.9647,2.471,37.73,1111122 
SCCF RECON,ioos:station:SCCF:16:1,2008-05-06T04:00:00Z,26.4345,-81.9647,2.613,37.71,1111122 
SCCF RECON,ioos:station:SCCF:16:1,2008-05-06T05:00:00Z,26.4345,-81.9647,2.718,37.66,1111122 
SCCF RECON,ioos:station:SCCF:16:1,2008-05-06T06:00:00Z,26.4345,-81.9647,2.774,37.64,1111122 
SCCF RECON,ioos:station:SCCF:16:1,2008-05-06T07:00:00Z,26.4345,-81.9647,2.731,37.63,1111122 
SCCF RECON,ioos:station:SCCF:16:1,2008-05-06T08:00:00Z,26.4345,-81.9647,2.624,37.63,1111122 
SCCF RECON,ioos:station:SCCF:16:1,2008-05-06T09:00:00Z,26.4345,-81.9647,2.509,37.64,1111122 
SCCF RECON,ioos:station:SCCF:16:1,2008-05-06T10:00:00Z,26.4345,-81.9647,2.472,37.65,1111122 
SCCF RECON,ioos:station:SCCF:16:1,2008-05-06T11:00:00Z,26.4345,-81.9647,2.431,37.66,1111122 
SCCF RECON,ioos:station:SCCF:16:1,2008-05-06T12:00:00Z,26.4345,-81.9647,2.449,37.69,1111122 
SCCF RECON,ioos:station:SCCF:16:1,2008-05-06T13:00:00Z,26.4345,-81.9647,2.591,37.67,1111122 
SCCF RECON,ioos:station:SCCF:16:1,2008-05-06T14:00:00Z,26.4345,-81.9647,2.792,37.66,1111122 
SCCF RECON,ioos:station:SCCF:16:1,2008-05-06T15:00:00Z,26.4345,-81.9647,2.926,37.64,1111122 
SCCF RECON,ioos:station:SCCF:16:1,2008-05-06T16:00:00Z,26.4345,-81.9647,3.002,37.61,1111122 
SCCF RECON,ioos:station:SCCF:16:1,2008-05-06T17:00:00Z,26.4345,-81.9647,3.011,37.6,1111122 
SCCF RECON,ioos:station:SCCF:16:1,2008-05-06T18:00:00Z,26.4345,-81.9647,2.967,37.59,1111122 
SCCF RECON,ioos:station:SCCF:16:1,2008-05-06T19:00:00Z,26.4345,-81.9647,2.837,37.59,1111122 
SCCF RECON,ioos:station:SCCF:16:1,2008-05-06T20:00:00Z,26.4345,-81.9647,2.594,37.61,1111122 
SCCF RECON,ioos:station:SCCF:16:1,2008-05-06T21:00:00Z,26.4345,-81.9647,2.3,37.64,1111122 
SCCF RECON,ioos:station:SCCF:16:1,2008-05-06T22:00:00Z,26.4345,-81.9647,2.052,37.69,1111122 
SCCF RECON,ioos:station:SCCF:16:1,2008-05-06T23:00:00Z,26.4345,-81.9647,1.811,37.7,1111122 
SCCF RECON,ioos:station:SCCF:16:1,2008-05-07T00:00:00Z,26.4345,-81.9647,1.659,37.76,1111122 
SCCF RECON,ioos:station:SCCF:16:1,2008-05-07T01:00:00Z,26.4345,-81.9647,1.684,37.79,1111122 
SCCF RECON,ioos:station:SCCF:16:1,2008-05-07T02:00:00Z,26.4345,-81.9647,1.904,37.75,1111122 
SCCF RECON,ioos:station:SCCF:16:1,2008-05-07T03:00:00Z,26.4345,-81.9647,2.192,37.8,1111122 
SCCF RECON,ioos:station:SCCF:16:1,2008-05-07T04:00:00Z,26.4345,-81.9647,2.399,37.75,1111122 
SCCF RECON,ioos:station:SCCF:16:1,2008-05-07T05:00:00Z,26.4345,-81.9647,2.557,37.76,1111122 
SCCF RECON,ioos:station:SCCF:16:1,2008-05-07T06:00:00Z,26.4345,-81.9647,2.651,37.67,1111122 
SCCF RECON,ioos:station:SCCF:16:1,2008-05-07T07:00:00Z,26.4345,-81.9647,2.662,37.66,1111122 
SCCF RECON,ioos:station:SCCF:16:1,2008-05-07T08:00:00Z,26.4345,-81.9647,2.628,37.64,1111122 
SCCF RECON,ioos:station:SCCF:16:1,2008-05-07T09:00:00Z,26.4345,-81.9647,2.571,37.64,1111122 
SCCF RECON,ioos:station:SCCF:16:1,2008-05-07T10:00:00Z,26.4345,-81.9647,2.516,37.64,1111122 
SCCF RECON,ioos:station:SCCF:16:1,2008-05-07T11:00:00Z,26.4345,-81.9647,2.508,37.64,1111122 
SCCF RECON,ioos:station:SCCF:16:1,2008-05-07T12:00:00Z,26.4345,-81.9647,2.498,37.65,1111122 
SCCF RECON,ioos:station:SCCF:16:1,2008-05-07T13:00:00Z,26.4345,-81.9647,2.542,37.65,1111122 
SCCF RECON,ioos:station:SCCF:16:1,2008-05-07T14:00:00Z,26.4345,-81.9647,2.694,37.64,1111122 
SCCF RECON,ioos:station:SCCF:16:1,2008-05-07T15:00:00Z,26.4345,-81.9647,2.868,37.63,1111122 
SCCF RECON,ioos:station:SCCF:16:1,2008-05-07T16:00:00Z,26.4345,-81.9647,2.971,37.61,1111122 
SCCF RECON,ioos:station:SCCF:16:1,2008-05-07T17:00:00Z,26.4345,-81.9647,3.027,37.59,1111122 
SCCF RECON,ioos:station:SCCF:16:1,2008-05-07T18:00:00Z,26.4345,-81.9647,3.078,37.58,1111122 
SCCF RECON,ioos:station:SCCF:16:1,2008-05-07T19:00:00Z,26.4345,-81.9647,3.022,37.58,1111122 
SCCF RECON,ioos:station:SCCF:16:1,2008-05-07T20:00:00Z,26.4345,-81.9647,2.866,37.58,1111122 
SCCF RECON,ioos:station:SCCF:16:1,2008-05-07T21:00:00Z,26.4345,-81.9647,2.622,37.59,1111122 
SCCF RECON,ioos:station:SCCF:16:1,2008-05-07T22:00:00Z,26.4345,-81.9647,2.339,37.61,1111122 
SCCF RECON,ioos:station:SCCF:16:1,2008-05-07T23:00:00Z,26.4345,-81.9647,2.073,37.67,1111122 
SCCF RECON,ioos:station:SCCF:16:1,2008-05-08T00:00:00Z,26.4345,-81.9647,1.849,37.66,1111122 
SCCF RECON,ioos:station:SCCF:16:1,2008-05-08T01:00:00Z,26.4345,-81.9647,1.746,37.74,1111122 
SCCF RECON,ioos:station:SCCF:16:1,2008-05-08T02:00:00Z,26.4345,-81.9647,1.817,37.71,1111122 
SCCF RECON,ioos:station:SCCF:16:1,2008-05-08T03:00:00Z,26.4345,-81.9647,2.064,37.76,1111122 
SCCF RECON,ioos:station:SCCF:16:1,2008-05-08T04:00:00Z,26.4345,-81.9647,2.344,37.79,1111122 
SCCF RECON,ioos:station:SCCF:16:1,2008-05-08T05:00:00Z,26.4345,-81.9647,2.503,37.71,1111122 
SCCF RECON,ioos:station:SCCF:16:1,2008-05-08T06:00:00Z,26.4345,-81.9647,2.615,37.62,1111122 
SCCF RECON,ioos:station:SCCF:16:1,2008-05-08T07:00:00Z,26.4345,-81.9647,2.676,37.61,1111122 
SCCF RECON,ioos:station:SCCF:16:1,2008-05-08T08:00:00Z,26.4345,-81.9647,2.715,37.6,1111122 
SCCF RECON,ioos:station:SCCF:16:1,2008-05-08T09:00:00Z,26.4345,-81.9647,2.729,37.6,1111122 
SCCF RECON,ioos:station:SCCF:16:1,2008-05-08T10:00:00Z,26.4345,-81.9647,2.684,37.6,1111122 
SCCF RECON,ioos:station:SCCF:16:1,2008-05-08T11:00:00Z,26.4345,-81.9647,2.636,37.64,1111122 
SCCF RECON,ioos:station:SCCF:16:1,2008-05-08T12:00:00Z,26.4345,-81.9647,2.579,37.7,1111122 
SCCF RECON,ioos:station:SCCF:16:1,2008-05-08T13:00:00Z,26.4345,-81.9647,2.611,37.71,1111122 
SCCF RECON,ioos:station:SCCF:16:1,2008-05-08T14:00:00Z,26.4345,-81.9647,2.715,37.72,1111122 
SCCF RECON,ioos:station:SCCF:16:1,2008-05-08T15:00:00Z,26.4345,-81.9647,2.837,37.75,1111122 
SCCF RECON,ioos:station:SCCF:16:1,2008-05-08T16:00:00Z,26.4345,-81.9647,2.98,37.72,1111122 
SCCF RECON,ioos:station:SCCF:16:1,2008-05-08T17:00:00Z,26.4345,-81.9647,3.057,37.69,1111122 
SCCF RECON,ioos:station:SCCF:16:1,2008-05-08T18:00:00Z,26.4345,-81.9647,3.084,37.69,1111122 
SCCF RECON,ioos:station:SCCF:16:1,2008-05-08T19:00:00Z,26.4345,-81.9647,3.086,37.69,1111122 
SCCF RECON,ioos:station:SCCF:16:1,2008-05-08T20:00:00Z,26.4345,-81.9647,2.993,37.7,1111122 
SCCF RECON,ioos:station:SCCF:16:1,2008-05-08T21:00:00Z,26.4345,-81.9647,2.807,37.73,1111122 
SCCF RECON,ioos:station:SCCF:16:1,2008-05-08T22:00:00Z,26.4345,-81.9647,2.592,37.79,1111122 
SCCF RECON,ioos:station:SCCF:16:1,2008-05-08T23:00:00Z,26.4345,-81.9647,2.356,37.77,1111122 
SCCF RECON,ioos:station:SCCF:16:1,2008-05-09T00:00:00Z,26.4345,-81.9647,2.113,37.75,1111122 
SCCF RECON,ioos:station:SCCF:16:1,2008-05-09T01:00:00Z,26.4345,-81.9647,1.883,37.64,1111122 
SCCF RECON,ioos:station:SCCF:16:1,2008-05-09T02:00:00Z,26.4345,-81.9647,1.794,37.66,1111122 
SCCF RECON,ioos:station:SCCF:16:1,2008-05-09T03:00:00Z,26.4345,-81.9647,1.895,37.63,1111122 
SCCF RECON,ioos:station:SCCF:16:1,2008-05-09T04:00:00Z,26.4345,-81.9647,2.134,37.65,1111122 
SCCF RECON,ioos:station:SCCF:16:1,2008-05-09T05:00:00Z,26.4345,-81.9647,2.336,37.7,1111122 
SCCF RECON,ioos:station:SCCF:16:1,2008-05-09T06:00:00Z,26.4345,-81.9647,2.484,37.7,1111122 
SCCF RECON,ioos:station:SCCF:16:1,2008-05-09T07:00:00Z,26.4345,-81.9647,2.554,37.64,1111122 
SCCF RECON,ioos:station:SCCF:16:1,2008-05-09T08:00:00Z,26.4345,-81.9647,2.61,37.66,1111122 
SCCF RECON,ioos:station:SCCF:16:1,2008-05-09T09:00:00Z,26.4345,-81.9647,2.653,37.64,1111122 
SCCF RECON,ioos:station:SCCF:16:1,2008-05-09T10:00:00Z,26.4345,-81.9647,2.66,37.64,1111122 
SCCF RECON,ioos:station:SCCF:16:1,2008-05-09T11:00:00Z,26.4345,-81.9647,2.638,37.66,1111122 
SCCF RECON,ioos:station:SCCF:16:1,2008-05-09T12:00:00Z,26.4345,-81.9647,2.615,37.64,1111122 
SCCF RECON,ioos:station:SCCF:16:1,2008-05-09T13:00:00Z,26.4345,-81.9647,2.578,37.64,1111122 
SCCF RECON,ioos:station:SCCF:16:1,2008-05-09T14:00:00Z,26.4345,-81.9647,2.585,37.66,1111122 
SCCF RECON,ioos:station:SCCF:16:1,2008-05-09T15:00:00Z,26.4345,-81.9647,2.662,37.66,1111122 
SCCF RECON,ioos:station:SCCF:16:1,2008-05-09T16:00:00Z,26.4345,-81.9647,2.782,37.64,1111122 
SCCF RECON,ioos:station:SCCF:16:1,2008-05-09T17:00:00Z,26.4345,-81.9647,2.872,37.64,1111122 
SCCF RECON,ioos:station:SCCF:16:1,2008-05-09T18:00:00Z,26.4345,-81.9647,2.906,37.71,1111122 
SCCF RECON,ioos:station:SCCF:16:1,2008-05-09T19:00:00Z,26.4345,-81.9647,2.909,37.69,1111122 
SCCF RECON,ioos:station:SCCF:16:1,2008-05-09T20:00:00Z,26.4345,-81.9647,2.878,37.71,1111122 
SCCF RECON,ioos:station:SCCF:16:1,2008-05-09T21:00:00Z,26.4345,-81.9647,2.821,37.73,1111122 
SCCF RECON,ioos:station:SCCF:16:1,2008-05-09T22:00:00Z,26.4345,-81.9647,2.688,37.67,1111122 
SCCF RECON,ioos:station:SCCF:16:1,2008-05-09T23:00:00Z,26.4345,-81.9647,2.517,37.69,1111122 
SCCF RECON,ioos:station:SCCF:16:1,2008-05-10T00:00:00Z,26.4345,-81.9647,2.314,37.74,1111122 
SCCF RECON,ioos:station:SCCF:16:1,2008-05-10T01:00:00Z,26.4345,-81.9647,2.093,37.76,1111122 
SCCF RECON,ioos:station:SCCF:16:1,2008-05-10T02:00:00Z,26.4345,-81.9647,1.918,37.7,1111122 
SCCF RECON,ioos:station:SCCF:16:1,2008-05-10T03:00:00Z,26.4345,-81.9647,1.849,37.69,1111122 
SCCF RECON,ioos:station:SCCF:16:1,2008-05-10T04:00:00Z,26.4345,-81.9647,1.909,37.68,1111122 
SCCF RECON,ioos:station:SCCF:16:1,2008-05-10T05:00:00Z,26.4345,-81.9647,2.122,37.7,1111122 
SCCF RECON,ioos:station:SCCF:16:1,2008-05-10T06:00:00Z,26.4345,-81.9647,2.289,37.68,1111122 
SCCF RECON,ioos:station:SCCF:16:1,2008-05-10T07:00:00Z,26.4345,-81.9647,2.391,37.64,1111122 
SCCF RECON,ioos:station:SCCF:16:1,2008-05-10T08:00:00Z,26.4345,-81.9647,2.476,37.72,1111122 
SCCF RECON,ioos:station:SCCF:16:1,2008-05-10T09:00:00Z,26.4345,-81.9647,2.581,37.71,1111122 
SCCF RECON,ioos:station:SCCF:16:1,2008-05-10T10:00:00Z,26.4345,-81.9647,2.624,37.71,1111122 
SCCF RECON,ioos:station:SCCF:16:1,2008-05-10T11:00:00Z,26.4345,-81.9647,2.623,37.72,1111122 
SCCF RECON,ioos:station:SCCF:16:1,2008-05-10T12:00:00Z,26.4345,-81.9647,2.6,37.72,1111122 
SCCF RECON,ioos:station:SCCF:16:1,2008-05-10T13:00:00Z,26.4345,-81.9647,2.583,37.72,1111122 
SCCF RECON,ioos:station:SCCF:16:1,2008-05-10T14:00:00Z,26.4345,-81.9647,2.548,37.72,1111122 
SCCF RECON,ioos:station:SCCF:16:1,2008-05-10T15:00:00Z,26.4345,-81.9647,2.538,37.73,1111122 
SCCF RECON,ioos:station:SCCF:16:1,2008-05-10T16:00:00Z,26.4345,-81.9647,2.565,37.74,1111122 
SCCF RECON,ioos:station:SCCF:16:1,2008-05-10T17:00:00Z,26.4345,-81.9647,2.647,37.74,1111122 
SCCF RECON,ioos:station:SCCF:16:1,2008-05-10T18:00:00Z,26.4345,-81.9647,2.735,37.73,1111122 
SCCF RECON,ioos:station:SCCF:16:1,2008-05-10T19:00:00Z,26.4345,-81.9647,2.814,37.74,1111122 
SCCF RECON,ioos:station:SCCF:16:1,2008-05-10T20:00:00Z,26.4345,-81.9647,2.818,37.76,1111122 
SCCF RECON,ioos:station:SCCF:16:1,2008-05-10T21:00:00Z,26.4345,-81.9647,2.791,37.78,1111122 
SCCF RECON,ioos:station:SCCF:16:1,2008-05-10T22:00:00Z,26.4345,-81.9647,2.746,37.78,1111122 
SCCF RECON,ioos:station:SCCF:16:1,2008-05-10T23:00:00Z,26.4345,-81.9647,2.649,37.78,1111122 
SCCF RECON,ioos:station:SCCF:16:1,2008-05-11T00:00:00Z,26.4345,-81.9647,2.507,37.76,1111122 
SCCF RECON,ioos:station:SCCF:16:1,2008-05-11T01:00:00Z,26.4345,-81.9647,2.348,37.73,1111122 
SCCF RECON,ioos:station:SCCF:16:1,2008-05-11T02:00:00Z,26.4345,-81.9647,2.185,37.77,1111122 
SCCF RECON,ioos:station:SCCF:16:1,2008-05-11T03:00:00Z,26.4345,-81.9647,2.03,37.83,1111122 
SCCF RECON,ioos:station:SCCF:16:1,2008-05-11T04:00:00Z,26.4345,-81.9647,1.93,37.67,1111122 
SCCF RECON,ioos:station:SCCF:16:1,2008-05-11T05:00:00Z,26.4345,-81.9647,1.989,37.69,1111122 
SCCF RECON,ioos:station:SCCF:16:1,2008-05-11T06:00:00Z,26.4345,-81.9647,2.163,37.75,1111122 
SCCF RECON,ioos:station:SCCF:16:1,2008-05-11T07:00:00Z,26.4345,-81.9647,2.342,37.8,1111122 
SCCF RECON,ioos:station:SCCF:16:1,2008-05-11T08:00:00Z,26.4345,-81.9647,2.438,37.73,1111122 
SCCF RECON,ioos:station:SCCF:16:1,2008-05-11T09:00:00Z,26.4345,-81.9647,2.522,37.69,1111122 
SCCF RECON,ioos:station:SCCF:16:1,2008-05-11T10:00:00Z,26.4345,-81.9647,2.587,37.71,1111122 
SCCF RECON,ioos:station:SCCF:16:1,2008-05-11T11:00:00Z,26.4345,-81.9647,2.651,37.73,1111122 
SCCF RECON,ioos:station:SCCF:16:1,2008-05-11T12:00:00Z,26.4345,-81.9647,2.675,37.76,1111122 
SCCF RECON,ioos:station:SCCF:16:1,2008-05-11T13:00:00Z,26.4345,-81.9647,2.634,37.76,1111122 
SCCF RECON,ioos:station:SCCF:16:1,2008-05-11T14:00:00Z,26.4345,-81.9647,2.638,37.76,1111122 
SCCF RECON,ioos:station:SCCF:16:1,2008-05-11T15:00:00Z,26.4345,-81.9647,2.594,37.76,1111122 
SCCF RECON,ioos:station:SCCF:16:1,2008-05-11T16:00:00Z,26.4345,-81.9647,2.527,37.76,1111122 
SCCF RECON,ioos:station:SCCF:16:1,2008-05-11T17:00:00Z,26.4345,-81.9647,2.538,37.74,1111122 
SCCF RECON,ioos:station:SCCF:16:1,2008-05-11T18:00:00Z,26.4345,-81.9647,2.565,37.72,1111122 
SCCF RECON,ioos:station:SCCF:16:1,2008-05-11T19:00:00Z,26.4345,-81.9647,2.662,37.69,1111122 
SCCF RECON,ioos:station:SCCF:16:1,2008-05-11T20:00:00Z,26.4345,-81.9647,2.73,37.69,1111122 
SCCF RECON,ioos:station:SCCF:16:1,2008-05-11T21:00:00Z,26.4345,-81.9647,2.726,37.71,1111122 
SCCF RECON,ioos:station:SCCF:16:1,2008-05-11T22:00:00Z,26.4345,-81.9647,2.719,37.72,1111122 
SCCF RECON,ioos:station:SCCF:16:1,2008-05-11T23:00:00Z,26.4345,-81.9647,2.694,37.72,1111122 
SCCF RECON,ioos:station:SCCF:16:1,2008-05-12T00:00:00Z,26.4345,-81.9647,2.628,37.72,1111122 
SCCF RECON,ioos:station:SCCF:16:1,2008-05-12T01:00:00Z,26.4345,-81.9647,2.547,37.71,1111122 
SCCF RECON,ioos:station:SCCF:16:1,2008-05-12T02:00:00Z,26.4345,-81.9647,2.413,37.69,1111122 
SCCF RECON,ioos:station:SCCF:16:1,2008-05-12T03:00:00Z,26.4345,-81.9647,2.297,37.69,1111122 
SCCF RECON,ioos:station:SCCF:16:1,2008-05-12T04:00:00Z,26.4345,-81.9647,2.16,37.7,1111122 
SCCF RECON,ioos:station:SCCF:16:1,2008-05-12T05:00:00Z,26.4345,-81.9647,2.066,37.72,1111122 
SCCF RECON,ioos:station:SCCF:16:1,2008-05-12T06:00:00Z,26.4345,-81.9647,2.113,37.71,1111122 
SCCF RECON,ioos:station:SCCF:16:1,2008-05-12T07:00:00Z,26.4345,-81.9647,2.254,37.75,1111122 
SCCF RECON,ioos:station:SCCF:16:1,2008-05-12T08:00:00Z,26.4345,-81.9647,2.401,37.73,1111122 